When you browse on this site, cookies collect data to enhance your experience and personalize the content and advertising you see.
Visit our Privacy Policy to learn more. By continuing to use the site, you agree to this use of cookies and data.

Hourly Weather Zherotino

Today, 13 August, Thursday

Time Temperature Precipitation Wind Pressure Humidity
00:00 +10°C° 0 mm 3 mps 746 mmHg 88%
01:00 +10°C° 0 mm 3 mps 746 mmHg 89%
02:00 +10°C° 0 mm 3 mps 746 mmHg 91%
03:00 +9°C° 0 mm 3 mps 746 mmHg 91%
04:00 +8°C° 0 mm 3 mps 746 mmHg 92%
05:00 +8°C° 0 mm 3 mps 746 mmHg 92%
06:00 +10°C° 0 mm 3 mps 746 mmHg 83%
07:00 +12°C° 0 mm 3 mps 746 mmHg 75%
08:00 +13°C° 0 mm 4 mps 746 mmHg 66%
09:00 +14°C° 0 mm 4 mps 746 mmHg 62%
10:00 +15°C° 0 mm 4 mps 746 mmHg 57%
11:00 +17°C° 0 mm 4 mps 746 mmHg 53%
12:00 +17°C° 0 mm 3 mps 746 mmHg 54%
13:00 +17°C° 0 mm 3 mps 746 mmHg 54%
14:00 +17°C° 0 mm 3 mps 746 mmHg 55%
15:00 +16°C° 0 mm 3 mps 746 mmHg 58%
16:00 +16°C° 0 mm 3 mps 745 mmHg 62%
17:00 +16°C° 0 mm 3 mps 745 mmHg 65%
18:00 +15°C° 0 mm 2 mps 745 mmHg 68%
19:00 +14°C° 0 mm 2 mps 746 mmHg 71%
20:00 +13°C° 0 mm 2 mps 746 mmHg 74%
21:00 +12°C° 0 mm 2 mps 746 mmHg 78%
22:00 +10°C° 0 mm 2 mps 746 mmHg 82%
23:00 +10°C° 0 mm 2 mps 746 mmHg 86%

Tomorrow, 14 August, Friday

Time Temperature Precipitation Wind Pressure Humidity
00:00 +9°C° 0 mm 2 mps 746 mmHg 88%
01:00 +8°C° 0 mm 2 mps 746 mmHg 91%
02:00 +8°C° 0 mm 2 mps 746 mmHg 94%
03:00 +8°C° 0 mm 2 mps 746 mmHg 95%
04:00 +7°C° 0 mm 2 mps 746 mmHg 95%
05:00 +7°C° 0 mm 2 mps 746 mmHg 96%
06:00 +9°C° 0 mm 2 mps 747 mmHg 87%
07:00 +12°C° 0 mm 2 mps 747 mmHg 79%
08:00 +14°C° 0 mm 2 mps 747 mmHg 71%
09:00 +14°C° 0 mm 3 mps 747 mmHg 64%
10:00 +17°C° 0 mm 3 mps 747 mmHg 58%
11:00 +18°C° 0 mm 3 mps 747 mmHg 52%
12:00 +18°C° 0 mm 3 mps 747 mmHg 52%
13:00 +18°C° 0 mm 3 mps 747 mmHg 52%
14:00 +18°C° 0 mm 2 mps 747 mmHg 53%
15:00 +18°C° 0 mm 2 mps 747 mmHg 55%
16:00 +18°C° 0 mm 2 mps 747 mmHg 57%
17:00 +19°C° 0 mm 1 mps 747 mmHg 59%
18:00 +16°C° 0 mm 1 mps 747 mmHg 66%
19:00 +14°C° 0 mm 1 mps 747 mmHg 73%
20:00 +11°C° 0 mm 0 mps 747 mmHg 80%
21:00 +12°C° 0 mm 1 mps 747 mmHg 81%
22:00 +11°C° 0 mm 1 mps 747 mmHg 82%
23:00 +11°C° 0 mm 1 mps 748 mmHg 83%

Day after tomorrow, 15 August, Saturday

Time Temperature Precipitation Wind Pressure Humidity
00:00 +10°C° 0 mm 1 mps 748 mmHg 85%
01:00 +10°C° 0 mm 1 mps 748 mmHg 86%
02:00 +10°C° 0 mm 1 mps 748 mmHg 88%
03:00 +10°C° 0 mm 1 mps 748 mmHg 88%
04:00 +10°C° 0 mm 1 mps 747 mmHg 89%
05:00 +10°C° 0 mm 1 mps 747 mmHg 89%
06:00 +12°C° 0 mm 1 mps 747 mmHg 82%
07:00 +14°C° 0 mm 1 mps 748 mmHg 75%
08:00 +16°C° 0 mm 1 mps 748 mmHg 68%
09:00 +19°C° 0 mm 1 mps 748 mmHg 62%
10:00 +20°C° 0 mm 1 mps 747 mmHg 57%
11:00 +22°C° 0 mm 1 mps 747 mmHg 52%
12:00 +22°C° 0.1 mm 1 mps 747 mmHg 53%
13:00 +22°C° 0.1 mm 1 mps 747 mmHg 54%
14:00 +22°C° 0.1 mm 1 mps 747 mmHg 55%
15:00 +22°C° 0.1 mm 1 mps 746 mmHg 60%
16:00 +21°C° 0.1 mm 1 mps 746 mmHg 66%
17:00 +19°C° 0.1 mm 0 mps 746 mmHg 72%
18:00 +19°C° 0 mm 1 mps 746 mmHg 78%
19:00 +16°C° 0 mm 1 mps 745 mmHg 84%
20:00 +14°C° 0 mm 1 mps 745 mmHg 89%
21:00 +14°C° 0 mm 1 mps 745 mmHg 91%
22:00 +14°C° 0 mm 1 mps 745 mmHg 92%
23:00 +13°C° 0 mm 1 mps 745 mmHg 94%

16 August, Sunday

Time Temperature Precipitation Wind Pressure Humidity
00:00 +13°C° 0 mm 1 mps 745 mmHg 94%
01:00 +13°C° 0 mm 1 mps 745 mmHg 95%
02:00 +12°C° 0 mm 1 mps 745 mmHg 95%
03:00 +12°C° 0 mm 1 mps 745 mmHg 95%
04:00 +12°C° 0 mm 1 mps 745 mmHg 96%
05:00 +12°C° 0 mm 1 mps 745 mmHg 96%
06:00 +14°C° 0 mm 1 mps 745 mmHg 90%
07:00 +16°C° 0 mm 1 mps 745 mmHg 83%
08:00 +19°C° 0 mm 1 mps 745 mmHg 77%
09:00 +21°C° 0 mm 1 mps 745 mmHg 70%
10:00 +23°C° 0 mm 2 mps 745 mmHg 63%
11:00 +24°C° 0 mm 2 mps 744 mmHg 57%
12:00 +24°C° 0.2 mm 2 mps 744 mmHg 60%
13:00 +24°C° 0.2 mm 2 mps 744 mmHg 63%
14:00 +25°C° 0.2 mm 3 mps 744 mmHg 66%
15:00 +24°C° 0.4 mm 2 mps 743 mmHg 71%
16:00 +23°C° 0.4 mm 2 mps 743 mmHg 76%
17:00 +23°C° 0.4 mm 2 mps 743 mmHg 81%
18:00 +20°C° 0.1 mm 2 mps 743 mmHg 84%
19:00 +19°C° 0.1 mm 2 mps 743 mmHg 88%
20:00 +18°C° 0.1 mm 2 mps 743 mmHg 92%
21:00 +17°C° 0 mm 2 mps 743 mmHg 92%
22:00 +17°C° 0 mm 2 mps 743 mmHg 93%
23:00 +16°C° 0 mm 3 mps 743 mmHg 94%

17 August, Monday

Time Temperature Precipitation Wind Pressure Humidity
00:00 +16°C° 0 mm 2 mps 743 mmHg 95%
01:00 +16°C° 0 mm 2 mps 743 mmHg 95%
02:00 +15°C° 0 mm 2 mps 743 mmHg 96%
03:00 +15°C° 0 mm 2 mps 743 mmHg 96%
04:00 +15°C° 0 mm 2 mps 743 mmHg 95%
05:00 +15°C° 0 mm 2 mps 742 mmHg 95%
06:00 +17°C° 0 mm 3 mps 742 mmHg 89%
07:00 +18°C° 0 mm 3 mps 743 mmHg 83%
08:00 +20°C° 0 mm 3 mps 743 mmHg 77%
09:00 +21°C° 0.6 mm 3 mps 742 mmHg 77%
10:00 +21°C° 0.6 mm 3 mps 742 mmHg 77%
11:00 +22°C° 0.6 mm 4 mps 742 mmHg 76%
12:00 +22°C° 0.8 mm 4 mps 742 mmHg 76%
13:00 +22°C° 0.8 mm 4 mps 742 mmHg 76%
14:00 +22°C° 0.8 mm 4 mps 742 mmHg 76%
15:00 +22°C° 0.4 mm 3 mps 741 mmHg 77%
16:00 +23°C° 0.4 mm 2 mps 741 mmHg 78%
17:00 +23°C° 0.4 mm 2 mps 741 mmHg 79%
18:00 +20°C° 0 mm 2 mps 741 mmHg 83%
19:00 +19°C° 0 mm 1 mps 741 mmHg 86%
20:00 +16°C° 0 mm 1 mps 741 mmHg 90%
21:00 +15°C° 0 mm 1 mps 741 mmHg 89%
22:00 +14°C° 0 mm 1 mps 741 mmHg 89%
23:00 +13°C° 0 mm 1 mps 742 mmHg 88%

18 August, Tuesday

Time Temperature Precipitation Wind Pressure Humidity
00:00 +13°C° 0 mm 1 mps 742 mmHg 88%
01:00 +12°C° 0 mm 1 mps 742 mmHg 87%
02:00 +12°C° 0 mm 1 mps 742 mmHg 86%
03:00 +11°C° 0 mm 1 mps 741 mmHg 86%
04:00 +11°C° 0 mm 1 mps 741 mmHg 86%
05:00 +11°C° 0 mm 1 mps 741 mmHg 86%
06:00 +13°C° 0 mm 1 mps 741 mmHg 79%
07:00 +14°C° 0 mm 1 mps 741 mmHg 73%
08:00 +16°C° 0 mm 1 mps 741 mmHg 67%
09:00 +19°C° 0 mm 1 mps 742 mmHg 61%
10:00 +19°C° 0 mm 0 mps 742 mmHg 55%
11:00 +21°C° 0 mm 0 mps 742 mmHg 50%
12:00 +24°C° 0 mm 1 mps 741 mmHg 47%
13:00 +24°C° 0 mm 1 mps 741 mmHg 45%
14:00 +24°C° 0 mm 1 mps 741 mmHg 43%
15:00 +24°C° 0 mm 1 mps 741 mmHg 48%
16:00 +23°C° 0 mm 1 mps 740 mmHg 53%
17:00 +23°C° 0 mm 1 mps 740 mmHg 58%
18:00 +20°C° 0 mm 1 mps 740 mmHg 62%
19:00 +18°C° 0 mm 1 mps 740 mmHg 67%
20:00 +15°C° 0 mm 1 mps 740 mmHg 72%
21:00 +14°C° 0 mm 1 mps 740 mmHg 74%
22:00 +14°C° 0 mm 1 mps 740 mmHg 75%
23:00 +13°C° 0 mm 1 mps 741 mmHg 76%
Show more